"2009-12-07 00:00:00",1480606,5.224,85.4,4.583,0.616,-7.304,94.71972,-14.13,-12.71,88.9,0,108.7,13.98,-13.43,47.4
"2009-12-07 00:00:30",1480607,5.614,87.7,3.81,0.562,-7.014,94.72134,-14.13,-12.71,88.9,0,108.7,13.98,-13.43,49.7
"2009-12-07 00:01:00",1480608,6.576,93.7,5.537,0.779,-7.094,94.71908,-14.13,-12.7,88.9,0,108.7,13.98,-13.43,55.7
"2009-12-07 00:01:30",1480609,6.478,99.4,3.172,0.812,-7.245,94.71883,-14.14,-12.71,88.9,0,108.7,13.98,-13.43,61.4
"2009-12-07 00:02:00",1480610,5.737,94.8,5.25,0.657,-6.959,94.71689,-14.14,-12.7,88.9,0,108.7,13.98,-13.44,56.8
"2009-12-07 00:02:30",1480611,6.102,92.9,4.671,0.573,-7.015,94.71738,-14.14,-12.71,88.9,0,108.7,13.98,-13.44,54.9
"2009-12-07 00:03:00",1480612,5.977,94.1,5.116,0.537,-6.938,94.7179,-14.14,-12.71,88.9,0,108.7,13.98,-13.44,56.1
"2009-12-07 00:03:30",1480613,5.655,93.3,3.103,0.618,-6.899,94.71628,-14.14,-12.72,88.9,0,108.7,13.98,-13.44,55.3
"2009-12-07 00:04:00",1480614,5.697,92.3,4.389,0.514,-6.788,94.72058,-14.13,-12.72,88.9,0,108.7,13.99,-13.43,54.3
"2009-12-07 00:04:30",1480615,5.995,87.8,4.013,0.6,-7.129,94.71924,-14.13,-12.69,88.9,0,108.7,13.99,-13.43,49.8
"2009-12-07 00:05:00",1480616,5.911,88.2,3.924,0.617,-6.85,94.71977,-14.13,-12.69,88.9,0,108.7,13.98,-13.43,50.2
"2009-12-07 00:05:30",1480617,6.016,88.7,3.285,0.709,-6.978,94.72112,-14.13,-12.72,88.9,0,108.7,13.99,-13.43,50.7
"2009-12-07 00:06:00",1480618,6.343,92.3,3.882,0.693,-6.904,94.7214,-14.13,-12.71,88.9,0,108.7,13.99,-13.43,54.3
"2009-12-07 00:06:30",1480619,6.263,92.7,3.421,0.205,-6.523,94.7214,-14.13,-12.7,88.9,0,108.7,13.99,-13.43,54.7
"2009-12-07 00:07:00",1480620,6.1,93.2,3.796,0.594,-6.767,94.72354,-14.12,-12.69,88.9,0,108.7,13.99,-13.42,55.2
"2009-12-07 00:07:30",1480621,6.015,98.4,3.077,0.655,-6.88,94.72327,-14.12,-12.71,88.8,0,108.7,13.99,-13.42,60.4
"2009-12-07 00:08:00",1480622,5.882,94.6,4.522,0.59,-6.7,94.72354,-14.12,-12.72,88.8,0,108.7,13.99,-13.42,56.6
"2009-12-07 00:08:30",1480623,5.92,93.6,3.45,0.65,-6.934,94.72436,-14.12,-12.72,88.8,0,108.7,13.99,-13.42,55.6
"2009-12-07 00:09:00",1480624,5.788,90.1,3.749,0.685,-6.818,94.72462,-14.12,-12.71,88.9,0,108.7,13.99,-13.42,52.1
"2009-12-07 00:09:30",1480625,5.82,91.6,4.514,0.711,-6.845,94.72678,-14.12,-12.71,88.8,0,108.7,13.99,-13.41,53.6
"2009-12-07 00:10:00",1480626,5.703,91.6,3.652,0.594,-6.808,94.72705,-14.11,-12.71,88.8,0,108.7,13.99,-13.41,53.6
"2009-12-07 00:10:30",1480627,5.678,92.9,3.102,0.602,-6.726,94.72732,-14.11,-12.72,88.8,0,108.7,13.99,-13.41,54.9
"2009-12-07 00:11:00",1480628,5.693,90.1,3.187,0.694,-6.986,94.72705,-14.11,-12.71,88.8,0,108.7,13.99,-13.41,52.1
"2009-12-07 00:11:30",1480629,5.832,90.2,3.056,0.67,-7.024,94.72732,-14.11,-12.72,88.8,0,108.7,13.99,-13.41,52.2
"2009-12-07 00:12:00",1480630,6.208,87.6,3.035,0.67,-7.091,94.72786,-14.11,-12.73,88.8,0,108.7,13.99,-13.41,49.6
"2009-12-07 00:12:30",1480631,6.346,87.6,1.707,0.647,-7.054,94.72839,-14.11,-12.72,88.8,0,108.6,13.99,-13.41,49.6
"2009-12-07 00:13:00",1480632,6.322,88.1,3.642,0.589,-6.963,94.72893,-14.11,-12.73,88.8,0,108.7,13.99,-13.41,50.1
"2009-12-07 00:13:30",1480633,6.17,91.3,2.628,0.735,-6.806,94.72948,-14.11,-12.72,88.8,0,108.7,13.99,-13.41,53.3
"2009-12-07 00:14:00",1480634,6.162,92.2,2.389,0.689,-6.687,94.72887,-14.11,-12.73,88.8,0,108.7,13.99,-13.41,54.2
"2009-12-07 00:14:30",1480635,6.497,94.3,3.768,0.456,-6.496,94.72688,-14.11,-12.75,88.8,0,108.7,13.99,-13.41,56.3
"2009-12-07 00:15:00",1480636,6.325,95.7,3.562,0.755,-6.951,94.72494,-14.12,-12.73,88.8,0,108.7,13.99,-13.42,57.7
"2009-12-07 00:15:30",1480637,6.576,95.9,3.33,0.631,-6.896,94.72169,-14.13,-12.74,88.8,0,108.7,13.99,-13.43,57.9
"2009-12-07 00:16:00",1480638,6.746,95.2,3.865,0.6,-6.68,94.71465,-14.15,-12.73,88.8,0,108.7,13.99,-13.44,57.2
"2009-12-07 00:16:30",1480639,6.592,96.2,3.31,0.698,-6.769,94.70808,-14.16,-12.74,88.8,0,108.7,13.99,-13.46,58.2
"2009-12-07 00:17:00",1480640,6.667,96.6,3.311,0.694,-6.94,94.70659,-14.17,-12.75,88.8,0,108.7,13.99,-13.46,58.6
"2009-12-07 00:17:30",1480641,6.551,95.8,3.82,0.687,-6.95,94.70684,-14.17,-12.77,88.8,0,108.7,13.99,-13.46,57.8
"2009-12-07 00:18:00",1480642,6.7,98.2,3.101,0.692,-6.888,94.7071,-14.17,-12.76,88.8,0,108.7,13.99,-13.46,60.2
"2009-12-07 00:18:30",1480643,6.878,97.5,3.163,0.564,-6.769,94.70505,-14.17,-12.77,88.8,0,108.7,14,-13.47,59.5
"2009-12-07 00:19:00",1480644,6.829,97.7,3.555,0.699,-6.908,94.70188,-14.18,-12.76,88.7,0,108.7,13.99,-13.48,59.7
"2009-12-07 00:19:30",1480645,6.671,96.3,3.584,0.692,-6.84,94.70316,-14.18,-12.76,88.7,0,108.7,13.99,-13.47,58.3
"2009-12-07 00:20:00",1480646,6.451,92.4,2.893,0.676,-6.859,94.70262,-14.18,-12.78,88.7,0,108.7,14,-13.47,54.4
"2009-12-07 00:20:30",1480647,6.64,93.1,2.832,0.657,-6.793,94.70262,-14.18,-12.79,88.7,0,108.6,14,-13.47,55.1
"2009-12-07 00:21:00",1480648,6.496,90.3,3.129,0.704,-6.793,94.7029,-14.18,-12.8,88.7,0,108.7,14,-13.47,52.3
"2009-12-07 00:21:30",1480649,6.306,94.2,3.924,0.684,-6.748,94.7037,-14.17,-12.8,88.7,0,108.7,14,-13.47,56.2
"2009-12-07 00:22:00",1480650,6.608,96.6,3.18,0.702,-6.921,94.70344,-14.17,-12.8,88.7,0,108.7,14,-13.47,58.6
"2009-12-07 00:22:30",1480651,6.96,96.9,2.697,0.652,-6.9,94.70114,-14.18,-12.8,88.7,0,108.7,14,-13.48,58.9
"2009-12-07 00:23:00",1480652,6.875,99.6,3.879,0.712,-6.968,94.7011,-14.18,-12.81,88.7,0,108.7,14,-13.48,61.6
"2009-12-07 00:23:30",1480653,7.027,101.3,3.177,0.705,-6.885,94.69313,-14.2,-12.8,88.7,0,108.7,14,-13.50,63.3
"2009-12-07 00:24:00",1480654,6.98,101.2,3.222,0.703,-6.895,94.6843,-14.22,-12.82,88.7,0,108.7,14,-13.52,63.2
"2009-12-07 00:24:30",1480655,7.07,97.3,3.553,0.621,-6.727,94.67641,-14.24,-12.82,88.6,0,108.7,14,-13.54,59.3
"2009-12-07 00:25:00",1480656,6.779,97.9,4.372,0.687,-6.808,94.6761,-14.24,-12.83,88.6,0,108.7,14,-13.54,59.9
"2009-12-07 00:25:30",1480657,6.946,101.4,3.397,0.674,-6.888,94.67212,-14.25,-12.82,88.6,0,108.7,13.99,-13.55,63.4
"2009-12-07 00:26:00",1480658,7.091,101.4,3.077,0.668,-6.907,94.66984,-14.26,-12.85,88.6,0,108.7,13.99,-13.56,63.4
"2009-12-07 00:26:30",1480659,7.284,98.4,3.726,0.56,-6.679,94.67119,-14.26,-12.86,88.6,0,108.7,13.99,-13.55,60.4
"2009-12-07 00:27:00",1480660,7.041,98.1,3.164,0.683,-6.769,94.67038,-14.26,-12.86,88.6,0,108.7,13.99,-13.56,60.1
"2009-12-07 00:27:30",1480661,7.047,99.9,2.4,0.76,-6.952,94.67092,-14.26,-12.87,88.6,0,108.7,13.99,-13.56,61.9
"2009-12-07 00:28:00",1480662,7.3,100.9,3.068,0.78,-6.934,94.66957,-14.26,-12.88,88.6,0,108.7,13.99,-13.56,62.9
"2009-12-07 00:28:30",1480663,7.294,102.3,1.583,0.671,-6.828,94.67011,-14.26,-12.88,88.5,0,108.7,13.99,-13.56,64.3
"2009-12-07 00:29:00",1480664,7.161,102.7,2.862,0.735,-6.814,94.66845,-14.26,-12.89,88.5,0,108.7,13.99,-13.56,64.7
"2009-12-07 00:29:30",1480665,7.27,102.5,3.312,0.791,-6.821,94.65622,-14.29,-12.91,88.5,0,108.7,13.99,-13.59,64.5
"2009-12-07 00:30:00",1480666,7.256,102,3.765,0.75,-6.936,94.64626,-14.32,-12.93,88.5,0,108.7,13.99,-13.62,64.0
"2009-12-07 00:30:30",1480667,7.306,101.2,3.546,0.722,-6.636,94.64425,-14.32,-12.92,88.5,0,108.7,13.99,-13.62,63.2
"2009-12-07 00:31:00",1480668,6.966,102.1,4.5,0.797,-6.946,94.64278,-14.33,-12.94,88.5,0,108.7,14,-13.63,64.1
"2009-12-07 00:31:30",1480669,7.06,106.3,3.669,0.589,-6.821,94.63741,-14.34,-12.95,88.5,0,108.7,14,-13.64,68.3
"2009-12-07 00:32:00",1480670,6.493,99.5,5.565,0.692,-6.706,94.63651,-14.34,-12.94,88.5,0,108.7,14,-13.64,61.5
"2009-12-07 00:32:30",1480671,6.985,106.4,3.192,0.377,-6.818,94.63651,-14.34,-12.96,88.5,0,108.7,14,-13.64,68.4
"2009-12-07 00:33:00",1480672,6.925,105.3,2.948,0.773,-6.872,94.63517,-14.35,-12.96,88.5,0,108.7,14,-13.65,67.3
"2009-12-07 00:33:30",1480673,7.194,104.9,3.32,0.822,-6.893,94.63706,-14.34,-12.95,88.5,0,108.7,14,-13.64,66.9
"2009-12-07 00:34:00",1480674,7.176,103.1,3.315,0.709,-7.068,94.63706,-14.34,-12.97,88.5,0,108.7,14,-13.64,65.1
"2009-12-07 00:34:30",1480675,6.999,108.1,2.282,0.672,-6.82,94.63623,-14.34,-12.97,88.5,0,108.7,14,-13.64,70.1
"2009-12-07 00:35:00",1480676,6.902,107.3,3.612,0.66,-6.786,94.63594,-14.35,-12.98,88.5,0,108.7,14,-13.64,69.3
"2009-12-07 00:35:30",1480677,6.58,110.8,3.569,0.732,-6.809,94.62906,-14.36,-12.97,88.5,0,108.7,14,-13.66,72.8
"2009-12-07 00:36:00",1480678,6.469,108.8,2.384,0.796,-6.869,94.6245,-14.37,-12.99,88.5,0,108.7,14,-13.67,70.8
"2009-12-07 00:36:30",1480679,6.729,111.2,3.488,0.58,-6.801,94.61941,-14.39,-12.99,88.5,0,108.7,14,-13.69,73.2
"2009-12-07 00:37:00",1480680,7.076,107.8,3.368,0.625,-6.87,94.61347,-14.4,-13.01,88.5,0,108.7,14,-13.70,69.8
"2009-12-07 00:37:30",1480681,6.82,108.6,3.257,0.649,-6.861,94.60722,-14.42,-13.02,88.5,0,108.7,14,-13.72,70.6
"2009-12-07 00:38:00",1480682,6.657,110.4,4.425,0.702,-7.016,94.60543,-14.42,-13.01,88.5,0,108.7,14,-13.72,72.4
"2009-12-07 00:38:30",1480683,6.737,110,4.429,0.548,-6.93,94.60322,-14.43,-13.03,88.5,0,108.7,14,-13.73,72.0
"2009-12-07 00:39:00",1480684,6.761,109,3.02,0.689,-7.014,94.60347,-14.43,-13.03,88.6,0,108.7,14,-13.73,71.0
"2009-12-07 00:39:30",1480685,6.839,108.5,3.307,0.698,-6.92,94.60347,-14.43,-13.02,88.6,0,108.7,14,-13.73,70.5
"2009-12-07 00:40:00",1480686,6.726,108,3.284,0.605,-6.946,94.60454,-14.43,-13.03,88.6,0,108.7,14,-13.72,70.0
"2009-12-07 00:40:30",1480687,6.5,111.2,2.897,0.581,-6.888,94.60561,-14.42,-13.06,88.6,0,108.7,14,-13.72,73.2
"2009-12-07 00:41:00",1480688,6.535,111.9,2.808,0.719,-7.052,94.60535,-14.42,-13.07,88.6,0,108.7,14,-13.72,73.9
"2009-12-07 00:41:30",1480689,6.618,109.3,3.86,0.682,-7.07,94.60454,-14.43,-13.06,88.6,0,108.7,14,-13.72,71.3
"2009-12-07 00:42:00",1480690,6.881,106.5,2.962,0.697,-7.101,94.60561,-14.42,-13.07,88.6,0,108.7,14,-13.72,68.5
"2009-12-07 00:42:30",1480691,6.9,109.6,2.263,0.701,-6.888,94.60481,-14.42,-13.06,88.6,0,108.7,14,-13.72,71.6
"2009-12-07 00:43:00",1480692,6.867,111,3.307,0.589,-7.047,94.6064,-14.42,-13.07,88.6,0,108.7,14,-13.72,73.0
"2009-12-07 00:43:30",1480693,6.658,111.1,3.22,0.624,-6.937,94.60416,-14.43,-13.08,88.6,0,108.7,14,-13.73,73.1
"2009-12-07 00:44:00",1480694,6.724,112.3,2.706,0.685,-6.987,94.59848,-14.44,-13.09,88.6,0,108.7,14,-13.74,74.3
"2009-12-07 00:44:30",1480695,6.942,109.7,2.707,0.61,-6.886,94.59957,-14.44,-13.09,88.6,0,108.7,14,-13.74,71.7
"2009-12-07 00:45:00",1480696,6.959,111,2.808,0.729,-7.108,94.59389,-14.45,-13.08,88.6,0,108.7,14,-13.75,73.0
"2009-12-07 00:45:30",1480697,6.993,109.9,2.851,0.671,-7.006,94.59134,-14.46,-13.08,88.6,0,108.7,14,-13.76,71.9
"2009-12-07 00:46:00",1480698,6.774,112.9,2.938,0.689,-7.035,94.58679,-14.47,-13.1,88.6,0,108.7,14,-13.77,74.9
"2009-12-07 00:46:30",1480699,6.625,114.2,3.48,0.351,-6.929,94.58247,-14.48,-13.1,88.6,0,108.7,14,-13.78,76.2
"2009-12-07 00:47:00",1480700,6.648,115.6,3.743,0.559,-7.108,94.58163,-14.48,-13.11,88.6,0,108.7,14,-13.78,77.6
"2009-12-07 00:47:30",1480701,6.906,113.1,3.225,0.626,-7.055,94.58107,-14.49,-13.1,88.6,0,108.7,14,-13.78,75.1
"2009-12-07 00:48:00",1480702,6.791,113.9,3.541,0.528,-7.068,94.58134,-14.48,-13.11,88.6,0,108.7,14,-13.78,75.9
"2009-12-07 00:48:30",1480703,6.917,118.1,3.412,0.511,-6.988,94.5805,-14.49,-13.12,88.6,0,108.7,14,-13.79,80.1
"2009-12-07 00:49:00",1480704,7.1,117.8,4.156,0.452,-7.067,94.58134,-14.48,-13.12,88.6,0,108.7,14,-13.78,79.8
"2009-12-07 00:49:30",1480705,6.781,118.4,4.234,0.51,-6.954,94.58048,-14.49,-13.1,88.6,0,108.7,14,-13.79,80.4
"2009-12-07 00:50:00",1480706,6.624,117.1,3.753,0.688,-6.823,94.57963,-14.49,-13.12,88.6,0,108.7,14.01,-13.79,79.1
"2009-12-07 00:50:30",1480707,6.816,119,3.045,0.503,-6.895,94.57877,-14.49,-13.12,88.6,0,108.7,14.01,-13.79,81.0
"2009-12-07 00:51:00",1480708,6.805,117.4,3.601,0.494,-6.961,94.57679,-14.5,-13.14,88.6,0,108.7,14,-13.80,79.4
"2009-12-07 00:51:30",1480709,6.819,117.3,3.891,0.326,-6.818,94.57365,-14.5,-13.12,88.6,0,108.7,14.01,-13.80,79.3
"2009-12-07 00:52:00",1480710,6.746,118.6,3.164,0.608,-7.004,94.57424,-14.5,-13.13,88.6,0,108.7,14.01,-13.80,80.6
"2009-12-07 00:52:30",1480711,6.73,118.5,2.661,0.603,-6.896,94.57365,-14.5,-13.13,88.6,0,108.7,14.01,-13.80,80.5
"2009-12-07 00:53:00",1480712,6.906,117.9,3.755,0.472,-7.046,94.57337,-14.5,-13.14,88.6,0,108.7,14.01,-13.80,79.9
"2009-12-07 00:53:30",1480713,6.998,119.3,3.995,0.514,-7.046,94.57337,-14.5,-13.13,88.5,0,108.7,14.01,-13.80,81.3
"2009-12-07 00:54:00",1480714,6.918,118.6,3.594,0.465,-7.039,94.57337,-14.5,-13.14,88.5,0,108.6,14.01,-13.80,80.6
"2009-12-07 00:54:30",1480715,7.035,120.8,3.494,0.487,-6.861,94.57337,-14.5,-13.14,88.5,0,108.7,14.01,-13.80,82.8
"2009-12-07 00:55:00",1480716,6.988,122.1,2.944,0.601,-7.134,94.57337,-14.5,-13.15,88.5,0,108.7,14.01,-13.80,84.1
"2009-12-07 00:55:30",1480717,7.003,121.9,3.93,0.362,-7.041,94.57337,-14.5,-13.14,88.5,0,108.7,14.01,-13.80,83.9
"2009-12-07 00:56:00",1480718,7.103,120,4.051,0.434,-6.924,94.57309,-14.51,-13.15,88.5,0,108.7,14.01,-13.80,82.0
"2009-12-07 00:56:30",1480719,7.046,119.7,3.196,0.471,-6.897,94.57309,-14.51,-13.16,88.5,0,108.7,14.01,-13.80,81.7
"2009-12-07 00:57:00",1480720,7.057,120.9,3.678,0.493,-6.84,94.57253,-14.51,-13.15,88.5,0,108.7,14.01,-13.81,82.9
"2009-12-07 00:57:30",1480721,6.948,121.5,3.713,0.543,-6.828,94.57224,-14.51,-13.16,88.5,0,108.7,14.01,-13.81,83.5
"2009-12-07 00:58:00",1480722,7.068,122.8,3.549,0.469,-6.904,94.56882,-14.52,-13.15,88.5,0,108.7,14.01,-13.82,84.8
"2009-12-07 00:58:30",1480723,6.926,123.9,3.711,0.481,-6.871,94.56882,-14.52,-13.16,88.5,0,108.7,14.01,-13.82,85.9
"2009-12-07 00:59:00",1480724,6.968,125.4,3.995,0.343,-6.863,94.56228,-14.53,-13.15,88.4,0,108.7,14.01,-13.83,87.4
"2009-12-07 00:59:30",1480725,7.035,124.5,4.888,0.507,-6.868,94.5563,-14.55,-13.16,88.4,0,108.7,14,-13.85,86.5
"2009-12-07 01:00:00",1480726,6.971,125,3.797,0.609,-6.81,94.54636,-14.57,-13.17,88.4,0,108.7,14,-13.87,87.0
"2009-12-07 01:00:30",1480727,7.241,125,3.536,0.281,-6.629,94.54521,-14.58,-13.17,88.4,0,108.7,14,-13.88,87.0
"2009-12-07 01:01:00",1480728,7.142,123.5,3.605,0.47,-6.873,94.5455,-14.58,-13.19,88.4,0,108.7,14,-13.87,85.5
"2009-12-07 01:01:30",1480729,7.154,122.6,3.422,0.484,-6.868,94.54152,-14.59,-13.17,88.4,0,108.7,14,-13.88,84.6
"2009-12-07 01:02:00",1480730,7.103,122.5,3.798,0.472,-6.879,94.53953,-14.59,-13.2,88.3,0,108.7,14,-13.89,84.5
"2009-12-07 01:02:30",1480731,7.021,123.4,3.215,0.614,-6.78,94.53924,-14.59,-13.19,88.3,0,108.7,14,-13.89,85.4
"2009-12-07 01:03:00",1480732,6.842,121.8,2.428,0.665,-6.993,94.53924,-14.59,-13.22,88.3,0,108.7,14,-13.89,83.8
"2009-12-07 01:03:30",1480733,6.841,122.9,3.742,0.62,-7.002,94.53924,-14.59,-13.19,88.3,0,108.7,14,-13.89,84.9
"2009-12-07 01:04:00",1480734,6.929,123.2,3.738,0.722,-6.946,94.53924,-14.59,-13.22,88.3,0,108.7,14,-13.89,85.2
"2009-12-07 01:04:30",1480735,7.031,121.2,3.654,0.5,-6.932,94.53924,-14.59,-13.21,88.3,0,108.7,14,-13.89,83.2
"2009-12-07 01:05:00",1480736,7.168,123,4.022,0.512,-6.873,94.53924,-14.59,-13.22,88.2,0,108.6,14.01,-13.89,85.0
"2009-12-07 01:05:30",1480737,7.047,124.5,4.23,0.471,-6.846,94.53753,-14.6,-13.22,88.2,0,108.6,14.01,-13.90,86.5
"2009-12-07 01:06:00",1480738,6.887,124.1,5.316,0.499,-6.893,94.53384,-14.6,-13.25,88.2,0,108.7,14.01,-13.90,86.1
"2009-12-07 01:06:30",1480739,7.012,125,3.796,0.482,-6.809,94.52786,-14.62,-13.24,88.2,0,108.6,14.01,-13.92,87.0
"2009-12-07 01:07:00",1480740,7.248,128.7,4.595,0.3,-6.923,94.51649,-14.65,-13.25,88.2,0,108.7,14.01,-13.95,90.7
"2009-12-07 01:07:30",1480741,6.861,126.7,4.155,0.495,-6.9,94.51165,-14.66,-13.24,88.2,0,108.7,14.01,-13.96,88.7
"2009-12-07 01:08:00",1480742,6.874,122.2,4.711,0.573,-6.866,94.51137,-14.66,-13.25,88.2,0,108.7,14.01,-13.96,84.2
"2009-12-07 01:08:30",1480743,7.149,125,3.322,0.677,-6.868,94.51051,-14.66,-13.27,88.2,0,108.6,14.01,-13.96,87.0
"2009-12-07 01:09:00",1480744,7.368,123.2,3.788,0.49,-7.031,94.5054,-14.68,-13.29,88.2,0,108.7,14.01,-13.98,85.2
"2009-12-07 01:09:30",1480745,7.281,123.4,3.705,0.624,-6.937,94.5054,-14.68,-13.28,88.2,0,108.7,14.01,-13.98,85.4
"2009-12-07 01:10:00",1480746,7.112,123.6,3.959,0.609,-6.887,94.50512,-14.68,-13.29,88.1,0,108.7,14.01,-13.98,85.6
"2009-12-07 01:10:30",1480747,7.379,122.8,3.669,0.604,-6.606,94.50512,-14.68,-13.3,88.1,0,108.7,14.01,-13.98,84.8
"2009-12-07 01:11:00",1480748,7.373,122.3,2.826,0.677,-6.997,94.50512,-14.68,-13.32,88.1,0,108.7,14.01,-13.98,84.3
"2009-12-07 01:11:30",1480749,7.282,122.7,3.695,0.689,-6.783,94.50227,-14.69,-13.3,88.1,0,108.7,14.01,-13.98,84.7
"2009-12-07 01:12:00",1480750,7.129,123.2,3.17,0.606,-6.892,94.49232,-14.71,-13.31,88.1,0,108.6,14.01,-14.01,85.2
"2009-12-07 01:12:30",1480751,6.925,121.5,3.454,0.597,-6.71,94.48606,-14.73,-13.32,88.1,0,108.6,14.01,-14.03,83.5
"2009-12-07 01:13:00",1480752,6.861,123.1,3.193,0.668,-7.137,94.47952,-14.74,-13.35,88.1,0,108.7,14.01,-14.04,85.1
"2009-12-07 01:13:30",1480753,7.059,125.9,4.346,0.514,-6.96,94.47582,-14.75,-13.32,88.1,0,108.7,14.01,-14.05,87.9
"2009-12-07 01:14:00",1480754,7.192,126.9,4.193,0.506,-6.942,94.47213,-14.76,-13.34,88.1,0,108.6,14.01,-14.06,88.9
"2009-12-07 01:14:30",1480755,7.193,126.8,3.679,0.49,-6.851,94.47099,-14.76,-13.35,88.1,0,108.6,14.01,-14.06,88.8
"2009-12-07 01:15:00",1480756,7.517,127.5,3.99,0.515,-6.987,94.47099,-14.76,-13.35,88.1,0,108.7,14.01,-14.06,89.5
"2009-12-07 01:15:30",1480757,7.528,128.2,3.825,0.6,-6.941,94.47099,-14.76,-13.34,88.1,0,108.7,14.01,-14.06,90.2
"2009-12-07 01:16:00",1480758,7.407,128.4,3.678,0.602,-6.831,94.47099,-14.76,-13.37,88,0,108.6,14.01,-14.06,90.4
"2009-12-07 01:16:30",1480759,7.176,128.1,2.693,0.679,-6.881,94.47099,-14.76,-13.39,88,0,108.6,14.01,-14.06,90.1
"2009-12-07 01:17:00",1480760,7.075,127.7,3.602,0.656,-6.885,94.47099,-14.76,-13.38,88,0,108.7,14.01,-14.06,89.7
"2009-12-07 01:17:30",1480761,7.12,129.7,2.709,0.702,-7.01,94.46928,-14.77,-13.38,88,0,108.6,14.01,-14.07,91.7
"2009-12-07 01:18:00",1480762,7.307,130.4,3.682,0.671,-6.78,94.46217,-14.79,-13.41,88,0,108.6,14.01,-14.09,92.4
"2009-12-07 01:18:30",1480763,7.576,130.3,3.186,0.694,-6.764,94.45107,-14.81,-13.41,88,0,108.6,14.01,-14.12,92.3
"2009-12-07 01:19:00",1480764,7.602,129.1,3.686,0.566,-6.823,94.44539,-14.83,-13.42,88,0,108.7,14.01,-14.13,91.1
"2009-12-07 01:19:30",1480765,7.846,129.9,3.08,0.599,-6.865,94.44482,-14.83,-13.42,88,0,108.6,14.01,-14.13,91.9
"2009-12-07 01:20:00",1480766,7.796,129.7,3.097,0.679,-6.841,94.44055,-14.84,-13.42,88,0,108.6,14.01,-14.14,91.7
"2009-12-07 01:20:30",1480767,7.764,129.6,3.15,0.674,-6.689,94.43686,-14.85,-13.44,88,0,108.6,14.01,-14.15,91.6
"2009-12-07 01:21:00",1480768,7.809,128.8,3.22,0.589,-6.76,94.43686,-14.85,-13.44,88,0,108.7,14.01,-14.15,90.8
"2009-12-07 01:21:30",1480769,7.722,128.3,3.521,0.61,-6.746,94.43686,-14.85,-13.43,88,0,108.6,14.01,-14.15,90.3
"2009-12-07 01:22:00",1480770,7.695,127.9,3.356,0.67,-6.836,94.43686,-14.85,-13.46,88,0,108.6,14.01,-14.15,89.9
"2009-12-07 01:22:30",1480771,7.591,127.2,3.093,0.679,-6.654,94.43686,-14.85,-13.48,88,0,108.6,14.01,-14.15,89.2
"2009-12-07 01:23:00",1480772,7.552,128.7,2.378,0.667,-6.886,94.43401,-14.86,-13.47,88.1,0,108.6,14.01,-14.16,90.7
"2009-12-07 01:23:30",1480773,7.676,127.9,3.382,0.575,-6.78,94.42946,-14.87,-13.47,88.1,0,108.6,14.01,-14.17,89.9
"2009-12-07 01:24:00",1480774,7.497,127.8,3.903,0.685,-6.837,94.42463,-14.88,-13.48,88.1,0,108.6,14.02,-14.18,89.8
"2009-12-07 01:24:30",1480775,7.513,128.8,2.485,0.685,-6.8,94.4141,-14.91,-13.48,88.1,0,108.6,14.02,-14.21,90.8
"2009-12-07 01:25:00",1480776,7.519,128.6,3.353,0.675,-6.933,94.40898,-14.92,-13.49,88.1,0,108.6,14.02,-14.22,90.6
"2009-12-07 01:25:30",1480777,7.613,129.1,2.581,0.68,-6.953,94.40926,-14.92,-13.49,88.1,0,108.6,14.02,-14.22,91.1
"2009-12-07 01:26:00",1480778,7.599,127.4,2.5,0.747,-7.005,94.40643,-14.93,-13.5,88.1,0,108.6,14.02,-14.23,89.4
"2009-12-07 01:26:30",1480779,7.627,129,2.223,0.742,-6.901,94.40414,-14.93,-13.52,88.1,0,108.6,14.02,-14.23,91.0
"2009-12-07 01:27:00",1480780,7.781,128.9,3.013,0.676,-7.036,94.40273,-14.94,-13.52,88.1,0,108.7,14.02,-14.24,90.9
"2009-12-07 01:27:30",1480781,7.786,130.4,2.656,0.75,-6.923,94.40273,-14.94,-13.51,88.1,0,108.6,14.02,-14.24,92.4
"2009-12-07 01:28:00",1480782,7.916,131.3,2.653,0.747,-7.023,94.40273,-14.94,-13.54,88.1,0,108.6,14.02,-14.24,93.3
"2009-12-07 01:28:30",1480783,7.968,133.6,2.308,0.676,-6.756,94.40327,-14.94,-13.54,88.1,0,108.6,14.02,-14.24,95.6
"2009-12-07 01:29:00",1480784,8.02,133.6,2.711,0.671,-6.85,94.40244,-14.94,-13.55,88.1,0,108.7,14.02,-14.24,95.6
"2009-12-07 01:29:30",1480785,7.97,134.7,3.259,0.689,-6.824,94.40214,-14.94,-13.54,88.1,0,108.6,14.02,-14.24,96.7
"2009-12-07 01:30:00",1480786,8.08,136.4,2.622,0.765,-6.822,94.39875,-14.95,-13.56,88.1,0,108.6,14.02,-14.25,98.4
"2009-12-07 01:30:30",1480787,8.21,136.8,2.412,0.748,-6.487,94.39214,-14.96,-13.57,88.1,0,108.6,14.02,-14.27,98.8
"2009-12-07 01:31:00",1480788,8.33,137.9,2.44,0.659,-6.537,94.3828,-14.99,-13.56,88.1,0,108.6,14.02,-14.29,99.9
"2009-12-07 01:31:30",1480789,8.25,137.5,2.604,0.752,-6.546,94.37826,-15,-13.58,88.1,0,108.6,14.02,-14.30,99.5
"2009-12-07 01:32:00",1480790,8.2,136.7,2.558,0.685,-6.608,94.37794,-15,-13.6,88.1,0,108.6,14.02,-14.30,98.7
"2009-12-07 01:32:30",1480791,8.09,136.7,2.964,0.681,-6.336,94.37767,-15,-13.57,88.1,0,108.6,14.02,-14.30,98.7
"2009-12-07 01:33:00",1480792,8,136.2,3.092,0.579,-6.533,94.3782,-15,-13.58,88.1,0,108.6,14.02,-14.30,98.2
"2009-12-07 01:33:30",1480793,7.879,135.5,3.055,0.672,-6.564,94.37843,-15,-13.59,88.2,0,108.6,14.01,-14.30,97.5
"2009-12-07 01:34:00",1480794,7.959,135.5,2.486,0.588,-6.536,94.37623,-15,-13.6,88.1,0,108.6,14.01,-14.31,97.5
"2009-12-07 01:34:30",1480795,7.854,134.8,2.507,0.681,-6.475,94.3722,-15.02,-13.61,88.1,0,108.6,14.01,-14.32,96.8
"2009-12-07 01:35:00",1480796,7.82,134.7,2.611,0.664,-6.612,94.37076,-15.02,-13.61,88.2,0,108.7,14.01,-14.32,96.7
"2009-12-07 01:35:30",1480797,7.724,134.8,2.533,0.756,-6.631,94.37048,-15.02,-13.62,88.2,0,108.6,14.01,-14.32,96.8
"2009-12-07 01:36:00",1480798,7.685,134.8,3.109,0.674,-6.655,94.36967,-15.02,-13.63,88.1,0,108.6,14.01,-14.32,96.8
"2009-12-07 01:36:30",1480799,7.614,135,2.567,0.686,-6.658,94.37074,-15.02,-13.63,88.1,0,108.6,14.01,-14.32,97.0
"2009-12-07 01:37:00",1480800,7.64,135.4,2.463,0.572,-6.772,94.36994,-15.02,-13.65,88.1,0,108.6,14.01,-14.32,97.4
"2009-12-07 01:37:30",1480801,7.675,134.7,3.064,0.607,-6.821,94.37048,-15.02,-13.63,88.1,0,108.6,14.01,-14.32,96.7
"2009-12-07 01:38:00",1480802,7.779,135,2.755,0.603,-6.715,94.36994,-15.02,-13.64,88.1,0,108.6,14.01,-14.32,97.0
"2009-12-07 01:38:30",1480803,7.974,134.7,3.405,0.445,-6.496,94.37021,-15.02,-13.64,88.1,0,108.6,14.01,-14.32,96.7
"2009-12-07 01:39:00",1480804,7.883,135.7,1.51,0.657,-6.787,94.3686,-15.02,-13.65,88.1,0,108.6,14.02,-14.33,97.7
"2009-12-07 01:39:30",1480805,7.819,134.8,2.692,0.67,-6.713,94.36967,-15.02,-13.65,88.2,0,108.6,14.02,-14.32,96.8
"2009-12-07 01:40:00",1480806,7.665,135.2,2.677,0.705,-6.688,94.37101,-15.02,-13.64,88.2,0,108.6,14.02,-14.32,97.2
"2009-12-07 01:40:30",1480807,7.502,137.7,1.573,0.781,-6.628,94.36912,-15.02,-13.64,88.1,0,108.6,14.02,-14.32,99.7
"2009-12-07 01:41:00",1480808,7.471,137.6,2.6,0.675,-6.653,94.36937,-15.02,-13.66,88.2,0,108.7,14.02,-14.32,99.6
"2009-12-07 01:41:30",1480809,7.4,135.8,2.986,0.676,-6.661,94.36828,-15.03,-13.64,88.2,0,108.6,14.02,-14.33,97.8
"2009-12-07 01:42:00",1480810,7.526,134.9,3.067,0.562,-6.814,94.36742,-15.03,-13.66,88.2,0,108.6,14.02,-14.33,96.9
"2009-12-07 01:42:30",1480811,7.568,135.1,2.543,0.674,-6.742,94.36255,-15.04,-13.66,88.2,0,108.6,14.02,-14.34,97.1
"2009-12-07 01:43:00",1480812,7.799,134.6,2.379,0.575,-6.835,94.35804,-15.05,-13.67,88.2,0,108.6,14.02,-14.35,96.6
"2009-12-07 01:43:30",1480813,7.83,135.1,2.519,0.672,-6.681,94.35265,-15.06,-13.65,88.2,0,108.6,14.02,-14.37,97.1
"2009-12-07 01:44:00",1480814,7.913,135.6,2.489,0.698,-6.771,94.3512,-15.07,-13.69,88.1,0,108.6,14.02,-14.37,97.6
"2009-12-07 01:44:30",1480815,7.959,136,3.001,0.603,-6.678,94.34863,-15.08,-13.68,88.1,0,108.6,14.02,-14.38,98.0
"2009-12-07 01:45:00",1480816,8,135.9,2.486,0.579,-6.741,94.34094,-15.09,-13.68,88.1,0,108.6,14.02,-14.40,97.9
"2009-12-07 01:45:30",1480817,7.882,135.7,3.12,0.602,-6.689,94.33641,-15.11,-13.66,88.1,0,108.6,14.02,-14.41,97.7
"2009-12-07 01:46:00",1480818,7.621,135.1,3.09,0.623,-6.737,94.335,-15.11,-13.68,88.1,0,108.6,14.02,-14.41,97.1